Погода в Берёзовке

Беларусь     53°43′09″N   25°29′53″E
темп.,
°C
ветер,
м/с
пор.,
м/с
влажн.,
%
обл.,
%
осадки,
мм/ч
давл.,
гПа
погр.,
м
16 мая, вс
вс1600:00+9зюз239412 0.0 100951
03:00+9юз22925 0.0 101017
06:00+8ю249686 0.0 101075
09:00+13ю3485100 0.0 1011349
12:00+18ю345898 0.0 10101330
15:00+20ююв455360 0.0 10091827
18:00+18юв4866100 0.3 10081128
21:00+14вюв41086100 0.8 1007239
17 мая, пн
пн1700:00+14юв51487100 1.6 1006392
03:00+13ююв4119191 1.9 1006417
06:00+12ююв41097100 2.4 1006493
09:00+13ююз3798100 8.4 1007434
12:00+15зюз338384 0.9 1007741
15:00+18зюз236396 1.1 10061405
18:00+17с3368100 0.1 1005821
21:00+13с1189100 0.1 100511
18 мая, вт
вт1800:00+11ссв3492100 0.0 100459
03:00+10св2296100 0.0 100220
06:00+10ссв2298100 0.0 100036
09:00+15сз118399 0.0 999354
12:00+19з226320 0.1 9991298
15:00+20з435586 0.4 9981753
18:00+16зюз468196 1.1 998666
21:00+12юз4895100 2.9 999320
19 мая, ср
ср1900:00+12зсз4799100 4.3 997248
03:00+12ссз51198100 9.4 997794
06:00+10ссз81496100 7.0 999883
09:00+9сз71495100 17.8 10021197
12:00+10зсз71294100 3.9 10041025
15:00+10з61196100 8.4 1006715
18:00+10зсз61294100 3.4 1007892
21:00+9зсз61386100 3.7 1009836
20 мая, чт
чт2000:00+7з41289100 0.0 1011530
03:00+6зюз41292100 0.0 1013387
06:00+5юз410962 0.0 1013280
09:00+11зюз48735 0.0 1014582
12:00+14зюз686464 0.3 10131594
15:00+11зюз6108592 1.8 1014901
18:00+12зюз5107512 0.4 10141361
21:00+9юз49891 1.1 1014288